Weather reports worldwide

Advertisment
Cardinham, United Kingdom (3823): temperature & dewpoint: 09.12.2019 18:00:00 - 15.12.2019 18:00:00 (GMT)Cardinham, United Kingdom (3823): temperature -20cm & temperature -100cm: 09.12.2019 18:00:00 - 15.12.2019 18:00:00 (GMT)Cardinham, United Kingdom (3823): wind speed & gusts: 09.12.2019 18:00:00 - 15.12.2019 18:00:00 (GMT)Cardinham, United Kingdom (3823): wind direction: 09.12.2019 18:00:00 - 15.12.2019 18:00:00 (GMT)Cardinham, United Kingdom (3823): reduced air pressure: 09.12.2019 18:00:00 - 15.12.2019 18:00:00 (GMT)Cardinham, United Kingdom (3823): visibility: 09.12.2019 18:00:00 - 15.12.2019 18:00:00 (GMT)Cardinham, United Kingdom (3823): precipitation: 09.12.2019 18:00:00 - 15.12.2019 18:00:00 (GMT)
Date & Time tt [°C] td [°C] tt -20cm [°C] tt -100cm [°C] ff [km/h] ff [kn] fx [km/h] fx [kn] dd ppp [hPa] vv [km] rr [mm]
15.12.2019 18:00:00 - - - - - - - - - - - -
15.12.2019 17:00:00 7,0 4,3 - - 28 15 54 29 SSW 995,8 26 0,0
15.12.2019 16:00:00 7,3 3,9 - - 31 17 54 29 SSW 995,7 23 0,0
15.12.2019 15:00:00 7,6 4,3 - - 31 17 59 32 SSW 995,9 19 0,0
15.12.2019 14:00:00 7,1 5,5 - - 28 15 61 33 SSW 996,2 18 0,6
15.12.2019 13:00:00 7,9 4,2 - - 31 17 59 32 SSW 996,4 22 0,0
15.12.2019 12:00:00 7,6 3,0 - - 34 18 55 30 SW 996,6 23 0,0
15.12.2019 11:00:00 7,6 4,2 - - 28 15 46 25 SW 996,7 14 0,0
15.12.2019 10:00:00 6,9 3,6 - - 26 14 - - SW 996,1 15 0,0
15.12.2019 09:00:00 5,9 3,9 7,0 8,4 18 10 - - WSW 995,2 6 0,2
15.12.2019 08:00:00 5,5 3,4 - - 24 13 - - WSW 994,4 16 0,0
15.12.2019 07:00:00 4,9 3,9 - - 21 11 65 35 WSW 993,6 13 0,6
15.12.2019 06:00:00 5,2 3,6 - - 26 14 46 25 WSW 993,0 5 0,4
15.12.2019 05:00:00 5,6 3,0 - - 29 16 52 28 SW 992,7 19 0,0
15.12.2019 04:00:00 5,2 1,9 - - 35 19 59 32 SW 992,6 15 0,0
15.12.2019 03:00:00 5,3 3,1 - - 28 15 61 33 WSW 992,4 14 0,2
15.12.2019 02:00:00 4,9 2,3 - - 34 18 57 31 W 991,8 18 0,2
15.12.2019 01:00:00 5,0 1,5 - - 34 18 74 40 W 991,2 16 0,0
15.12.2019 00:00:00 5,4 2,6 - - 29 16 80 43 W 990,5 24 0,2
14.12.2019 23:00:00 5,9 3,7 - - 37 20 61 33 W 989,7 17 0,0
14.12.2019 22:00:00 6,5 5,2 - - 24 13 - - WSW 988,8 12 0,4
14.12.2019 21:00:00 7,0 5,1 - - 28 15 - - WSW 988,7 15 0,0
14.12.2019 20:00:00 7,2 6,4 - - 24 13 - - SW 989,1 12 0,6
14.12.2019 19:00:00 6,6 5,1 - - 24 13 48 26 SW 989,9 30 0,0
14.12.2019 18:00:00 7,1 5,5 - - 37 20 65 35 SW 990,5 25 2,6
14.12.2019 17:00:00 8,1 6,0 - - 34 18 61 33 SSW 991,6 8 0,0
14.12.2019 16:00:00 7,2 4,4 - - 24 13 - - SSW 993,2 13 0,0
14.12.2019 15:00:00 6,8 2,4 - - 15 8 - - S 994,3 15 0,0
14.12.2019 14:00:00 6,7 1,4 - - 18 10 - - WSW 995,2 14 0,0
14.12.2019 13:00:00 8,3 2,0 - - 26 14 52 28 WSW 995,8 13 0,0
14.12.2019 12:00:00 7,8 0,4 - - 31 17 59 32 W 995,9 16 0,0
14.12.2019 11:00:00 6,9 -0,5 - - 34 18 67 36 W 995,7 17 0,0
14.12.2019 10:00:00 6,7 -1,4 - - 42 23 70 38 W 994,9 20 0,0
14.12.2019 09:00:00 6,2 -0,6 7,2 8,4 44 24 68 37 W 993,6 23 0,0
14.12.2019 08:00:00 5,4 3,3 - - 34 18 80 43 WNW 992,8 21 0,8
14.12.2019 07:00:00 5,9 5,4 - - 24 13 - - WSW 991,6 12 0,0
14.12.2019 06:00:00 5,0 3,8 - - 29 16 48 26 WSW 992,0 18 1,8
14.12.2019 05:00:00 6,3 3,3 - - 24 13 50 27 W 991,9 17 0,0
14.12.2019 04:00:00 7,3 2,3 - - 29 16 57 31 W 992,0 14 0,0
14.12.2019 03:00:00 6,8 1,1 - - 35 19 63 34 WNW 991,8 13 0,0
14.12.2019 02:00:00 6,8 2,2 - - 37 20 78 42 WNW 990,7 12 0,0
14.12.2019 01:00:00 6,8 2,4 - - 44 24 81 44 W 989,5 14 0,0
14.12.2019 00:00:00 6,5 5,7 - - 34 18 65 35 WNW 988,4 14 1,2
13.12.2019 23:00:00 7,1 4,8 - - 46 25 78 42 WNW 987,3 21 0,0
13.12.2019 22:00:00 8,2 7,0 - - 52 28 83 45 NW 983,8 11 0,0
13.12.2019 21:00:00 9,9 7,5 - - 44 24 72 39 W 981,6 8 0,0
13.12.2019 20:00:00 10,4 8,4 - - 44 24 83 45 W 982,2 9 0,0
13.12.2019 19:00:00 10,4 10,3 - - 41 22 63 34 W 982,8 8 0,4
13.12.2019 18:00:00 6,4 6,2 - - 16 9 - - S 985,1 0,8 2,6
13.12.2019 17:00:00 6,7 6,3 - - 13 7 - - SW 986,8 2,4 1,4
13.12.2019 16:00:00 6,5 4,9 - - 22 12 - - WSW 988,3 5 0,6
13.12.2019 15:00:00 7,1 3,8 - - 22 12 50 27 W 989,3 13 0,0
13.12.2019 14:00:00 7,5 2,5 - - 31 17 54 29 W 989,4 14 0,0
13.12.2019 13:00:00 7,5 1,7 - - 28 15 48 26 WNW 989,7 14 0,0
13.12.2019 12:00:00 7,5 0,9 - - 34 18 57 31 WNW 989,7 18 0,0
13.12.2019 11:00:00 7,3 0,1 - - 41 22 65 35 WNW 989,8 25 0,0
13.12.2019 10:00:00 6,8 0,0 - - 39 21 68 37 WNW 988,7 22 0,0
13.12.2019 09:00:00 6,2 0,3 7,2 8,5 37 20 70 38 WNW 987,6 26 0,4
13.12.2019 08:00:00 6,1 1,0 - - 35 19 70 38 WNW 986,4 18 0,0
13.12.2019 07:00:00 6,1 0,1 - - 42 23 74 40 WNW 985,4 22 0,0
13.12.2019 06:00:00 6,3 0,6 - - 41 22 72 39 WNW 984,2 23 0,0
13.12.2019 05:00:00 6,3 1,2 - - 44 24 74 40 WNW 983,3 18 0,0
13.12.2019 04:00:00 6,3 1,3 - - 39 21 74 40 WNW 982,6 18 0,0
13.12.2019 03:00:00 5,1 2,8 - - 39 21 80 43 WNW 981,9 12 1,2
13.12.2019 02:00:00 6,4 1,8 - - 41 22 78 42 WNW 980,9 14 0,2
13.12.2019 01:00:00 6,7 2,3 - - 41 22 74 40 WNW 979,9 16 0,0
13.12.2019 00:00:00 6,6 3,7 - - 34 18 78 42 WNW 979,4 11 0,0
12.12.2019 23:00:00 7,5 2,9 - - 46 25 78 42 WNW 979,0 12 0,0
12.12.2019 22:00:00 8,1 4,6 - - 46 25 78 42 W 978,4 11 0,0
12.12.2019 21:00:00 8,1 5,6 - - 35 19 63 34 W 978,8 8 0,2
12.12.2019 20:00:00 8,6 7,0 - - 35 19 57 31 W 979,7 11 0,2
12.12.2019 19:00:00 8,8 8,2 - - 29 16 48 26 W 980,7 7 1,0
12.12.2019 18:00:00 8,8 8,0 - - 24 13 - - W 982,2 10 0,0
12.12.2019 17:00:00 8,2 7,3 - - 26 14 - - W 983,4 12 0,0
12.12.2019 16:00:00 8,5 7,5 - - 22 12 - - W 984,3 10 0,0
12.12.2019 15:00:00 8,3 7,5 - - 34 18 55 30 WNW 984,3 11 0,2
12.12.2019 14:00:00 8,9 7,8 - - 34 18 61 33 WNW 984,2 10 0,0
12.12.2019 13:00:00 8,8 7,9 - - 39 21 59 32 WNW 984,3 15 0,4
12.12.2019 12:00:00 8,3 7,8 - - 34 18 54 29 WNW 984,3 13 0,8
12.12.2019 11:00:00 9,1 8,8 - - 29 16 - - WSW 984,7 15 1,6
12.12.2019 10:00:00 8,8 8,5 - - 21 11 46 25 SSW 986,2 10 2,2
12.12.2019 09:00:00 8,7 8,3 7,4 8,7 24 13 48 26 SSW 988,0 8 1,0
12.12.2019 08:00:00 9,0 8,8 - - 29 16 - - SW 989,8 8 0,4
12.12.2019 07:00:00 8,7 8,6 - - 26 14 - - SW 991,7 2,8 0,2
12.12.2019 06:00:00 7,4 7,2 - - 21 11 - - S 993,6 4,2 1,2
12.12.2019 05:00:00 7,0 6,8 - - 21 11 - - S 995,5 9 0,8
12.12.2019 04:00:00 6,4 6,2 - - 24 13 - - S 998,0 10 0,4
12.12.2019 03:00:00 4,9 4,4 - - 18 10 - - S 1000,2 11 0,4
12.12.2019 02:00:00 4,6 3,7 - - 15 8 - - S 1002,3 13 0,2
12.12.2019 01:00:00 2,7 1,7 - - 5 3 - - SSE 1004,0 12 0,2
12.12.2019 00:00:00 3,4 1,4 - - 11 6 78 42 WSW 1005,2 16 0,0
11.12.2019 23:00:00 3,1 1,7 - - 13 7 - - WSW 1005,7 21 0,0
11.12.2019 22:00:00 3,6 1,9 - - 26 14 46 25 W 1006,3 1,8 0,6
11.12.2019 21:00:00 3,0 1,2 - - 13 7 - - W 1006,3 28 1,0
11.12.2019 20:00:00 3,5 1,4 - - 18 10 - - WNW 1006,4 29 0,0
11.12.2019 19:00:00 3,6 2,2 - - 13 7 46 25 W 1006,2 17 0,6
11.12.2019 18:00:00 4,2 1,6 - - 24 13 - - WNW 1005,7 27 0,2
11.12.2019 17:00:00 4,2 2,0 - - 24 13 46 25 NW 1005,1 30 0,2
11.12.2019 16:00:00 4,9 2,3 - - 26 14 - - WNW 1004,0 27 0,2
11.12.2019 15:00:00 5,5 2,9 - - 22 12 - - W 1003,3 30 0,2
11.12.2019 14:00:00 4,9 3,2 - - 21 11 - - W 1003,1 23 0,0
11.12.2019 13:00:00 4,1 3,5 - - 16 9 46 25 W 1003,5 17 1,4
11.12.2019 12:00:00 3,9 2,9 - - 13 7 48 26 W 1003,9 35 0,6
11.12.2019 11:00:00 5,3 3,4 - - 22 12 - - W 1004,4 21 0,2
11.12.2019 10:00:00 4,6 4,0 - - 29 16 52 28 W 1005,0 9 1,2
11.12.2019 09:00:00 4,5 3,5 7,7 8,7 21 11 - - WSW 1005,5 15 0,2
11.12.2019 08:00:00 3,9 3,2 - - 9 5 - - SSW 1006,3 17 0,2
11.12.2019 07:00:00 3,3 2,7 - - 11 6 - - SSW 1007,4 15 1,0
11.12.2019 06:00:00 4,0 3,4 - - 11 6 - - SW 1007,9 19 0,2
11.12.2019 05:00:00 4,7 3,8 - - 18 10 - - WSW 1009,0 8 0,2
11.12.2019 04:00:00 5,1 3,9 - - 22 12 - - WSW 1009,5 19 1,6
11.12.2019 03:00:00 5,8 3,9 - - 24 13 - - W 1010,3 6 0,2
11.12.2019 02:00:00 5,5 3,1 - - 18 10 - - W 1010,6 17 0,0
11.12.2019 01:00:00 5,7 3,0 - - 21 11 - - W 1010,8 15 0,0
11.12.2019 00:00:00 5,8 4,1 - - 16 9 - - W 1011,1 16 0,2
10.12.2019 23:00:00 6,5 3,6 - - 18 10 - - W 1010,7 16 0,0
10.12.2019 22:00:00 6,1 3,2 - - 22 12 - - W 1010,4 15 0,0
10.12.2019 21:00:00 6,5 2,7 - - 26 14 - - W 1009,7 14 0,0
10.12.2019 20:00:00 7,0 4,8 - - 24 13 - - W 1008,8 11 0,0
10.12.2019 19:00:00 6,8 6,2 - - 24 13 54 29 W 1008,2 13 0,4
10.12.2019 18:00:00 7,2 6,6 - - 24 13 - - W 1007,2 11 0,4
10.12.2019 17:00:00 7,4 6,9 - - 28 15 78 42 WNW 1006,1 6 2,2
10.12.2019 16:00:00 12,0 11,7 - - 44 24 70 38 SW 1003,6 3,8 1,6
10.12.2019 15:00:00 11,6 11,3 - - 39 21 74 40 SSW 1004,6 5 0,2
10.12.2019 14:00:00 11,6 11,4 - - 44 24 68 37 SSW 1006,2 3,7 0,2
10.12.2019 13:00:00 11,5 11,4 - - 42 23 67 36 SSW 1007,7 4,4 0,6
10.12.2019 12:00:00 11,2 11,1 - - 41 22 68 37 SSW 1009,4 2,4 0,0
10.12.2019 11:00:00 11,0 10,9 - - 41 22 65 35 SSW 1011,0 1,8 0,2
10.12.2019 10:00:00 10,4 10,2 - - 41 22 59 32 SSW 1012,4 3,3 0,4
10.12.2019 09:00:00 10,2 10,0 7,7 8,7 42 23 63 34 S 1013,3 2,8 1,2
10.12.2019 08:00:00 9,5 9,2 - - 41 22 63 34 S 1014,4 3,8 1,2
10.12.2019 07:00:00 9,1 8,8 - - 37 20 57 31 S 1015,9 2,6 1,0
10.12.2019 06:00:00 9,1 8,2 - - 34 18 55 30 S 1017,4 5 0,2
10.12.2019 05:00:00 8,9 7,7 - - 34 18 48 26 S 1018,9 10 0,2
10.12.2019 04:00:00 8,8 6,7 - - 31 17 48 26 S 1020,2 12 0,0
10.12.2019 03:00:00 7,9 6,3 - - 28 15 - - S 1021,4 12 0,0
10.12.2019 02:00:00 6,5 5,5 - - 22 12 - - S 1023,1 11 0,0
10.12.2019 01:00:00 5,7 5,3 - - 13 7 - - S 1024,0 10 0,0
10.12.2019 00:00:00 3,2 2,8 - - 13 7 - - SSE 1025,0 7 0,0
09.12.2019 23:00:00 2,8 2,3 - - 9 5 - - S 1025,8 7 0,0
09.12.2019 22:00:00 3,4 2,9 - - 8 4 - - SSW 1026,1 8 0,0
09.12.2019 21:00:00 2,9 1,9 - - 8 4 - - SE 1026,0 8 0,0
09.12.2019 20:00:00 4,0 2,7 - - 8 4 - - WSW 1026,4 10 0,0
09.12.2019 19:00:00 4,6 3,0 - - 2 1 - - SW 1026,0 10 0,0
09.12.2019 18:00:00 5,9 3,6 - - 5 3 - - WNW 1025,4 12 0,0

tt = temperature
td = dewpoint
tt -20cm = temperature -20cm
tt -100cm = temperature -100cm
ff = wind speed
fx = gusts
dd = wind direction
ppp = reduced air pressure
vv = visibility
rr = precipitation

Next stations